Regional Weather Roundup
Issued by NWS Newport/Morehead, NC

Current Version | Previous Version | Text Only | Print | Product List | Glossary On
Versions: 1 2 3 4 5 6 7 8 9 10 11 12 13 14 15 16 17 18 19 20 21 22 23 24 25 26 27 28 29 30 31 32 33 34 35 36 37 38 39 40 41 42 43 44 45 46 47 48 49 50
811
ASUS42 KMHX 301925
RWRMHX
WEATHER ROUNDUP FOR EASTERN NORTH CAROLINA
NATIONAL WEATHER SERVICE NEWPORT/MOREHEAD CITY NC
300 PM EDT MON MAY 30 2016

NOTE: "FAIR" INDICATES FEW OR NO CLOUDS BELOW 12,000 FEET
WITH NO SIGNIFICANT WEATHER AND/OR OBSTRUCTIONS TO VISIBILITY

NCZ015>017-031-032-045>047-102-103-302000-
NORTH COAST

CITY           SKY/WX    TMP DP  RH WIND       PRES   REMARKS
EDENTON        CLOUDY   N/A N/A N/A SE9       29.99R
ELIZABETH CITY LGT RAIN  75  72  90 SE8       29.98F
KITTY HAWK     LGT RAIN  74  72  95 CALM      29.98F
MANTEO         NOT AVBL

$$

NCZ045>047-081-094-103-104-302000-
CENTRAL COAST

CITY           SKY/WX    TMP DP  RH WIND       PRES   REMARKS
FRISCO         HVY RAIN  72  70  93 CALM      29.99F VSB 1

$$

NCZ095-097-098-100-101-302000-
SOUTHERN COAST

CITY           SKY/WX    TMP DP  RH WIND       PRES   REMARKS
BEAUFORT       CLOUDY    76  74  93 VRB5      29.96F
CEDAR ISLAND   NOT AVBL
JACKSONVILLE   CLOUDY    83  70  64 SE14      29.93F
PINEY ISLAND   RAIN     N/A N/A N/A W7        29.97F VSB 1
WILMINGTON     CLOUDY    79  71  76 SE12      29.92F


$$

NCZ011>013-027>030-043-044-078>080-089-090>093-098-302000-
COASTAL PLAIN

CITY           SKY/WX    TMP DP  RH WIND       PRES   REMARKS
AHOSKIE        CLOUDY    78  70  75 SE3       29.97R
CLINTON        CLOUDY    81  74  77 E5        29.91F
ELIZABETHTOWN  PTSUNNY   81  70  69 E8        29.90F
GOLDSBORO      CLOUDY    76  76 100 NE6       29.92F
GREENVILLE     LGT RAIN  73  70  88 E9        29.98F
HAVELOCK       CLOUDY    77  70  79 E10       29.97F
KENANSVILLE    MOSUNNY   82  72  72 CALM      29.93F
KINSTON        CLOUDY    81  68  65 E12       29.96S
NEW BERN       CLOUDY    73  69  87 E10       29.98S
RICHLANDS      PTSUNNY   83  71  67 SE8       29.93F
ROCKY MOUNT    LGT RAIN  78  72  81 VRB5      29.95F
WASHINGTON     HVY RAIN  71  70  96 S6        29.98R
WHITEVILLE     CLOUDY    83  70  64 SE10      29.88F

$$

AMZ130-135-150-152-154-156-158-170-250-252-270-ANZ085-086-088-633-658-670-302000-
MARINE OBSERVATIONS

STATION/POSITION TIME  TEMP    WIND        PRES    WAVE   SWELL
                       AIR SEA DIR/SP/G            HT/PER HT/PER
                 (UTC) (F)     (DEG/KT/KT) (MB)    (FT/S) (FT/S)
CHESAPEAKE LIGHT 1900   69     170/  9/  9 1016.2
64 E VA BEACH    1850   66 64  160/  8/ 10 1015.7    6/ 7   5/ 7
DUCK             1900   65 58  140/  7/  9 1014.8
2 E DUCK         1811      62                N/A     4/ 7
OREGON INLET     1900   72 75  170/  9/ 11 1015.5
13E OREGON INLT  1900      71                N/A     5/ 8   5/ 8
HATTERAS CG      1900   71 75   80/  5/  6 1015.0
DIAMOND BUOY     1850   74 80  160/ 17/ 23 1015.0    6/ 7   2/13
CAPE LOOKOUT     1900   74      10/  3/  4 1014.1
BEAUFORT LAB     1900   74 75   30/  6/ 10 1013.7
30 SE NEW RVR IN 1825      76                N/A     6/ 8
27 SE WRIGHTSVLE 1908   79 76  180/  8/ 12 1013.1
5 SE WRIGHTSVLE  1908   77 77  110/  8/ 12 1013.6
225 S CAPE HAT   1850   75 76  180/ 10/ 10 1015.1    5/ 7   5/ 7
41 SE CHARLESTON 1850   74 78  220/ 12/ 14 1012.1    4/ 8   3/ 8

$$




USA.gov is the U.S. government's official web portal to all federal, state and local government web resources and services.